• In Belarus
  • List of Countries
  • For 7 days
  • Water Temperature
  • Satellite Maps
  • Weather Map
  • Weather Widgets
  • user-avatar
    Login

    Hourly Weather Armawir

    Today, 18 October, Thursday

    Time Temperature Precipitation Wind Pressure Humidity
    00:00 +14°C° 0 mm 1 mps 690 mmHg 68%
    01:00 +14°C° 0 mm 1 mps 690 mmHg 70%
    02:00 +14°C° 0 mm 1 mps 690 mmHg 72%
    03:00 +12°C° 0 mm 0 mps 690 mmHg 74%
    04:00 +12°C° 0 mm 0 mps 690 mmHg 74%
    05:00 +11°C° 0 mm 0 mps 690 mmHg 75%
    06:00 +11°C° 0 mm 0 mps 689 mmHg 75%
    07:00 +13°C° 0 mm 0 mps 690 mmHg 66%
    08:00 +16°C° 0 mm 1 mps 690 mmHg 57%
    09:00 +20°C° 0 mm 1 mps 690 mmHg 48%
    10:00 +21°C° 0 mm 1 mps 690 mmHg 42%
    11:00 +22°C° 0 mm 1 mps 690 mmHg 37%
    12:00 +23°C° 0 mm 2 mps 690 mmHg 32%
    13:00 +24°C° 0 mm 2 mps 690 mmHg 30%
    14:00 +24°C° 0 mm 2 mps 689 mmHg 29%
    15:00 +24°C° 0 mm 2 mps 689 mmHg 27%
    16:00 +22°C° 0 mm 1 mps 689 mmHg 32%
    17:00 +20°C° 0 mm 1 mps 689 mmHg 37%
    18:00 +16°C° 0 mm 0 mps 688 mmHg 41%
    19:00 +16°C° 0 mm 1 mps 689 mmHg 44%
    20:00 +16°C° 0 mm 1 mps 689 mmHg 47%
    21:00 +15°C° 0 mm 1 mps 689 mmHg 49%
    22:00 +15°C° 0 mm 1 mps 689 mmHg 52%
    23:00 +14°C° 0 mm 1 mps 689 mmHg 55%

    Tomorrow, 19 October, Friday

    Time Temperature Precipitation Wind Pressure Humidity
    00:00 +14°C° 0 mm 1 mps 689 mmHg 58%
    01:00 +14°C° 0 mm 1 mps 689 mmHg 60%
    02:00 +13°C° 0 mm 1 mps 689 mmHg 63%
    03:00 +13°C° 0 mm 1 mps 689 mmHg 65%
    04:00 +12°C° 0 mm 0 mps 689 mmHg 66%
    05:00 +11°C° 0 mm 0 mps 689 mmHg 68%
    06:00 +11°C° 0 mm 0 mps 689 mmHg 69%
    07:00 +14°C° 0 mm 1 mps 689 mmHg 59%
    08:00 +16°C° 0 mm 1 mps 690 mmHg 49%
    09:00 +20°C° 0 mm 1 mps 690 mmHg 40%
    10:00 +21°C° 0 mm 1 mps 690 mmHg 36%
    11:00 +21°C° 0 mm 2 mps 690 mmHg 32%
    12:00 +23°C° 0 mm 2 mps 690 mmHg 29%
    13:00 +24°C° 0 mm 2 mps 689 mmHg 28%
    14:00 +24°C° 0 mm 2 mps 689 mmHg 28%
    15:00 +24°C° 0 mm 2 mps 689 mmHg 27%
    16:00 +21°C° 0 mm 2 mps 689 mmHg 32%
    17:00 +20°C° 0 mm 1 mps 688 mmHg 36%
    18:00 +18°C° 0 mm 1 mps 688 mmHg 41%
    19:00 +18°C° 0 mm 1 mps 688 mmHg 43%
    20:00 +16°C° 0 mm 1 mps 689 mmHg 45%
    21:00 +16°C° 0 mm 1 mps 689 mmHg 47%
    22:00 +15°C° 0 mm 1 mps 689 mmHg 48%
    23:00 +15°C° 0 mm 1 mps 689 mmHg 49%

    Day after tomorrow, 20 October, Saturday

    Time Temperature Precipitation Wind Pressure Humidity
    00:00 +15°C° 0 mm 1 mps 689 mmHg 50%
    01:00 +14°C° 0 mm 1 mps 689 mmHg 50%
    02:00 +14°C° 0 mm 1 mps 688 mmHg 50%
    03:00 +14°C° 0 mm 1 mps 688 mmHg 50%
    04:00 +14°C° 0 mm 1 mps 688 mmHg 51%
    05:00 +13°C° 0 mm 1 mps 688 mmHg 51%
    06:00 +13°C° 0 mm 1 mps 688 mmHg 51%
    07:00 +15°C° 0.1 mm 1 mps 688 mmHg 48%
    08:00 +18°C° 0.1 mm 1 mps 689 mmHg 44%
    09:00 +20°C° 0.1 mm 1 mps 689 mmHg 41%
    10:00 +21°C° 0.1 mm 2 mps 689 mmHg 38%
    11:00 +23°C° 0.1 mm 2 mps 689 mmHg 36%
    12:00 +24°C° 0.1 mm 2 mps 689 mmHg 34%
    13:00 +24°C° 0 mm 2 mps 688 mmHg 34%
    14:00 +24°C° 0 mm 2 mps 688 mmHg 33%
    15:00 +25°C° 0 mm 2 mps 687 mmHg 33%
    16:00 +23°C° 0.1 mm 2 mps 687 mmHg 37%
    17:00 +20°C° 0.1 mm 2 mps 687 mmHg 41%
    18:00 +19°C° 0.1 mm 2 mps 687 mmHg 46%
    19:00 +19°C° 0.2 mm 1 mps 687 mmHg 47%
    20:00 +19°C° 0.2 mm 1 mps 688 mmHg 48%
    21:00 +19°C° 0.2 mm 1 mps 688 mmHg 49%
    22:00 +18°C° 0.2 mm 1 mps 687 mmHg 51%
    23:00 +18°C° 0.2 mm 1 mps 687 mmHg 53%

    21 October, Sunday

    Time Temperature Precipitation Wind Pressure Humidity
    00:00 +16°C° 0.2 mm 1 mps 687 mmHg 55%
    01:00 +16°C° 0.1 mm 1 mps 687 mmHg 56%
    02:00 +15°C° 0.1 mm 1 mps 686 mmHg 57%
    03:00 +15°C° 0.1 mm 1 mps 686 mmHg 58%
    04:00 +15°C° 0 mm 1 mps 686 mmHg 59%
    05:00 +15°C° 0 mm 1 mps 686 mmHg 60%
    06:00 +14°C° 0 mm 1 mps 686 mmHg 61%
    07:00 +16°C° 0 mm 1 mps 686 mmHg 55%
    08:00 +18°C° 0 mm 2 mps 687 mmHg 50%
    09:00 +19°C° 0 mm 2 mps 687 mmHg 44%
    10:00 +20°C° 0 mm 2 mps 687 mmHg 42%
    11:00 +21°C° 0 mm 3 mps 686 mmHg 39%
    12:00 +22°C° 0 mm 3 mps 686 mmHg 36%
    13:00 +22°C° 0.1 mm 3 mps 686 mmHg 36%
    14:00 +22°C° 0.1 mm 4 mps 685 mmHg 36%
    15:00 +22°C° 0.1 mm 4 mps 685 mmHg 36%
    16:00 +21°C° 0.1 mm 3 mps 685 mmHg 41%
    17:00 +19°C° 0.1 mm 3 mps 685 mmHg 46%
    18:00 +18°C° 0.1 mm 2 mps 685 mmHg 52%
    19:00 +18°C° 0.2 mm 2 mps 685 mmHg 56%
    20:00 +17°C° 0.2 mm 2 mps 685 mmHg 60%
    21:00 +17°C° 0.2 mm 2 mps 685 mmHg 64%
    22:00 +16°C° 0.2 mm 1 mps 685 mmHg 66%
    23:00 +16°C° 0.2 mm 1 mps 685 mmHg 69%

    22 October, Monday

    Time Temperature Precipitation Wind Pressure Humidity
    00:00 +16°C° 0.2 mm 1 mps 685 mmHg 72%
    01:00 +15°C° 0.2 mm 1 mps 685 mmHg 74%
    02:00 +15°C° 0.2 mm 1 mps 685 mmHg 75%
    03:00 +14°C° 0.2 mm 1 mps 685 mmHg 77%
    04:00 +14°C° 0 mm 1 mps 685 mmHg 77%
    05:00 +14°C° 0 mm 1 mps 685 mmHg 76%
    06:00 +14°C° 0 mm 1 mps 685 mmHg 76%
    07:00 +15°C° 0 mm 2 mps 685 mmHg 69%
    08:00 +17°C° 0 mm 2 mps 686 mmHg 62%
    09:00 +19°C° 0 mm 3 mps 686 mmHg 55%
    10:00 +20°C° 0 mm 3 mps 686 mmHg 50%
    11:00 +21°C° 0 mm 3 mps 686 mmHg 46%
    12:00 +22°C° 0 mm 4 mps 686 mmHg 41%
    13:00 +22°C° 0.1 mm 4 mps 686 mmHg 41%
    14:00 +22°C° 0.1 mm 4 mps 686 mmHg 40%
    15:00 +23°C° 0.1 mm 4 mps 686 mmHg 39%
    16:00 +21°C° 0.1 mm 4 mps 686 mmHg 44%
    17:00 +19°C° 0.1 mm 3 mps 686 mmHg 48%
    18:00 +18°C° 0.1 mm 2 mps 686 mmHg 53%
    19:00 +17°C° 0 mm 2 mps 687 mmHg 54%
    20:00 +17°C° 0 mm 2 mps 687 mmHg 55%
    21:00 +16°C° 0 mm 2 mps 687 mmHg 56%
    22:00 +16°C° 0 mm 2 mps 687 mmHg 56%
    23:00 +16°C° 0 mm 2 mps 687 mmHg 57%

    23 October, Tuesday

    Time Temperature Precipitation Wind Pressure Humidity
    00:00 +15°C° 0 mm 2 mps 687 mmHg 58%
    01:00 +15°C° 0 mm 2 mps 687 mmHg 59%
    02:00 +15°C° 0 mm 2 mps 688 mmHg 60%
    03:00 +15°C° 0 mm 2 mps 688 mmHg 61%
    04:00 +15°C° 0.1 mm 2 mps 688 mmHg 62%
    05:00 +15°C° 0.1 mm 2 mps 688 mmHg 62%
    06:00 +14°C° 0.1 mm 2 mps 688 mmHg 63%
    07:00 +16°C° 0.2 mm 2 mps 688 mmHg 60%
    08:00 +17°C° 0.2 mm 2 mps 688 mmHg 56%
    09:00 +19°C° 0.2 mm 3 mps 689 mmHg 53%
    10:00 +20°C° 0.1 mm 3 mps 689 mmHg 50%
    11:00 +21°C° 0.1 mm 4 mps 689 mmHg 47%
    12:00 +22°C° 0.1 mm 4 mps 689 mmHg 44%
    13:00 +21°C° 0.5 mm 4 mps 688 mmHg 47%
    14:00 +20°C° 0.5 mm 3 mps 688 mmHg 51%
    15:00 +20°C° 0.5 mm 3 mps 687 mmHg 54%
    16:00 +19°C° 0.3 mm 3 mps 687 mmHg 57%
    17:00 +18°C° 0.3 mm 3 mps 687 mmHg 60%
    18:00 +17°C° 0.3 mm 3 mps 687 mmHg 63%
    19:00 +17°C° 0.1 mm 2 mps 687 mmHg 64%
    20:00 +17°C° 0.1 mm 2 mps 687 mmHg 65%
    21:00 +16°C° 0.1 mm 2 mps 687 mmHg 66%
    22:00 +16°C° 0.2 mm 2 mps 687 mmHg 66%
    23:00 +16°C° 0.2 mm 2 mps 687 mmHg 66%
    Show more